Hourly Data Report for August 16, 2018

TORONTO CITY
ONTARIO
Current Station Operator: ECCC - MSC

43°40'00.000" N
79°24'00.000" W
112.50 m
6158355
71508
XTO

Download Data

Hourly Data (August 2018)
Hourly Data Report for August 16, 2018
TIME
LST
Temp Definition
°C
Dew Point Definition
°C
Rel Hum Definition
%
Precip. Amount Definition
mm

Wind Dir Definition
10's deg

Wind Spd Definition
km/h
Visibility Definition
km
Stn Press Definition
kPa
Hmdx Definition


Wind Chill Definition


Weather Definition


00:00 24.8 17.5 64 0.0 LegendMM LegendMM   100.21 30   LegendNANA
01:00 23.5 17.6 69 0.0 LegendMM LegendMM   100.23 29   LegendNANA
02:00 22.7 17.6 73 0.0 LegendMM LegendMM   100.23 28   LegendNANA
03:00 22.3 17.6 75 0.0 LegendMM LegendMM   100.24 28   LegendNANA
04:00 22.0 17.8 77 0.0 LegendMM LegendMM   100.26 28   LegendNANA
05:00 21.6 17.8 79 0.0 LegendMM LegendMM   100.29 27   LegendNANA
06:00 22.0 17.9 78 0.0 LegendMM LegendMM   100.33 28   LegendNANA
07:00 23.4 18.9 76 0.0 LegendMM LegendMM   100.36 30   LegendNANA
08:00 25.2 18.7 67 0.0 LegendMM LegendMM   100.38 32   LegendNANA
09:00 26.1 19.0 65 0.0 LegendMM LegendMM   100.38 33   LegendNANA
10:00 26.7 19.3 64 0.0 LegendMM LegendMM   100.42 34   LegendNANA
11:00 27.8 19.5 61 0.0 LegendMM LegendMM   100.39 35   LegendNANA
12:00 28.0 19.6 61 0.0 LegendMM LegendMM   100.39 35   LegendNANA
13:00 27.3 19.5 63 0.0 LegendMM LegendMM   100.38 34   LegendNANA
14:00 27.7 19.6 61 0.0 LegendMM LegendMM   100.33 35   LegendNANA
15:00 27.8 21.2 67 0.0 LegendMM LegendMM   100.27 36   LegendNANA
16:00 26.5 20.4 69 0.0 LegendMM LegendMM   100.28 34   LegendNANA
17:00 26.1 21.1 74 0.0 LegendMM LegendMM   100.26 35   LegendNANA
18:00 25.6 21.1 76 0.0 LegendMM LegendMM   100.26 34   LegendNANA
19:00 25.3 21.2 78 0.0 LegendMM LegendMM   100.23 34   LegendNANA
20:00 25.1 21.4 80 0.0 LegendMM LegendMM   100.22 34   LegendNANA
21:00 25.5 21.5 79 0.0 LegendMM LegendMM   100.24 34   LegendNANA
22:00 25.3 19.6 71 0.0 LegendMM LegendMM   100.23 33   LegendNANA
23:00 24.8 20.4 77 0.0 LegendMM LegendMM   100.21 33   LegendNANA

Notes on Data Quality.

Legend

  • E = Estimated
  • M = Missing
  • NA = Not Available*
  • [empty] = Indicates an unobserved value
Date modified: